Regional Weather Roundup
Issued by NWS

Home | Current Version | Previous Version | Graphics & Text | Print | Product List | Glossary On
Versions: 1 2 3 4 5 6 7 8 9 10 11 12 13 14 15 16 17 18 19 20 21 22 23 24 25 26 27 28 29 30 31 32 33 34 35 36 37 38 39 40 41 42 43 44 45 46 47 48 49 50
000
ASUS43 KMPX 291201
RWRMN
WEATHER ROUNDUP FOR MINNESOTA
NATIONAL WEATHER SERVICE TWIN CITIES/CHANHASSEN MN
700 AM CDT FRI MAY 29 2015


NOTE: "FAIR" INDICATES FEW OR NO CLOUDS BELOW 12,000 FEET WITH NO
SIGNIFICANT WEATHER AND/OR OBSTRUCTIONS TO VISIBILITY. N/A MEANS
CURRENT SKY AND/OR WEATHER CONDITIONS ARE NOT AVAILABLE.

MNZ060>063-068>070-291300-
   Twin Cities Metro

CITY           SKY/WX    TMP DP  RH WIND       PRES   REMARKS
TWIN CITIES    CLOUDY    65  62  90 S7        29.88R
6HR MIN TEMP:  64; 6HR MAX TEMP:  72; 6HR PCP:  0.30;

ST PAUL        CLOUDY    63  62  97 SE7       29.88R
CRYSTAL        MOSUNNY   66  63  90 S9        29.85S
BLAINE         MOSUNNY   66  64  94 S8        29.86S
LAKEVILLE      CLOUDY    64  63  94 S6        29.88R
EDEN PRAIRIE   CLOUDY    66  63  90 VRB3      29.86S
6HR MIN TEMP:  66; 6HR MAX TEMP:  71;

SOUTH ST PAUL  CLOUDY    64  63  97 CALM      29.88R
LAKE ELMO      CLOUDY    63  63 100 S3        29.89S
$$
MNZ001>005-007-008-013>017-022>024-027-028-291300-
   Northwest Minnesota

CITY           SKY/WX    TMP DP  RH WIND       PRES   REMARKS
BEMIDJI        CLOUDY    56  55  95 N9G17     29.90R
HALLOCK        CLOUDY    45  39  81 N22G33    30.08R
ROSEAU         CLOUDY    46  43  87 N17       30.01R
WARROAD        CLOUDY    46  43  87 NW17G24   30.00R
THIEF RVR FALL CLOUDY    48  45  87 N17G25    30.01R
CROOKSTON      CLOUDY    46  45  93 N22G31    30.02R
FOSSTON        CLOUDY    48  48 100 N20       29.96R
DETROIT LAKES  DRIZZLE   55  55 100 N12G25    29.92R
MOORHEAD       CLOUDY    48  46  93 N30       29.97R
PARK RAPIDS    CLOUDY    60  58  92 NW7       29.87S
MAHNOMEN       CLOUDY    53  52  97 N22G28    29.92R FOG
$$
MNZ006-009>011-018-025>026-291300-
   North Central Minnesota

CITY           SKY/WX    TMP DP  RH WIND       PRES   REMARKS
BAUDETTE       CLOUDY    51  48  89 NW16G24   29.94R
FLAG ISLAND    CLOUDY    48  45  87 N25G31    29.97R
INTL FALLS     CLOUDY    57  55  93 N15       29.87R FOG
6HR MIN TEMP:  57; 6HR MAX TEMP:  60; 6HR PCP:  0.17;

WASKISH        CLOUDY    54  54 100 NW10G18   29.92R FOG
BIG FORK       CLOUDY    61  57  88 CALM      29.87R
LONGVILLE      CLOUDY    59  59 100 NW3       29.86S
GRAND RAPIDS   CLOUDY    61  55  82 NW5       29.86S
CRANE LAKE     DRIZZLE   55  55 100 S3        29.85S
ORR            CLOUDY    55  54  94 CALM      29.83S
COOK           RAIN      55  54  94 CALM      29.86S
WALKER         DRIZZLE   58  57  97 W5        29.87R
$$
MNZ012-019>021-037-291300-
   Northeast Minnesota

CITY           SKY/WX    TMP DP  RH WIND       PRES   REMARKS
DULUTH         CLOUDY    57  53  86 S8        29.86R
6HR MIN TEMP:  46; 6HR MAX TEMP:  58;

HIBBING        CLOUDY    55  50  83 CALM      29.86S
EVELETH        LGT RAIN  54  52  94 CALM      29.88R
DULUTH HARBOR  PTSUNNY   45  43  93 NE5       29.88S
TWO HARBORS    PTSUNNY   52  46  82 CALM      29.85S
SILVER BAY     CLOUDY    50  46  87 CALM      29.85S
GRAND MARAIS     N/A     42  40  92 CALM      29.87F
G MARAIS ARPRT MOSUNNY   55  48  76 S5        29.89S
$$
MNZ029>031-032-039>041-046>048-054>057-064-291300-
   West Central Minnesota

CITY           SKY/WX    TMP DP  RH WIND       PRES   REMARKS
FERGUS FALLS   CLOUDY    59  59 100 N17G25    29.90R FOG
WHEATON        CLOUDY    59  57  94 NW9       29.90R
MORRIS         CLOUDY    61  61 100 N9        29.88R
ALEXANDRIA     CLOUDY    60  59  96 N12       29.89R
ELBOW LAKE     FAIR      60  59  99 N8        29.88S
WADENA         CLOUDY    59  57  94 NW3       29.88R
GLENWOOD       PTSUNNY   61  57  88 N3        29.88R
APPLETON       CLOUDY    63  61  94 N10       29.86R
BENSON         CLOUDY    63  57  82 N7        29.86S
ORTONVILLE     CLOUDY    61  57  88 N13       29.87R
MADISON        CLOUDY    61  61 100 N10       29.86R
WILLMAR        FAIR      64  63  94 W6        29.87R
$$
MNZ033>034-036-042>043-049>051-058-059-291300-
   Central Minnesota

CITY           SKY/WX    TMP DP  RH WIND       PRES   REMARKS
ST CLOUD       CLOUDY    64  61  90 SE5       29.84R
6HR MIN TEMP:  60; 6HR MAX TEMP:  67;

SAUK CENTRE    CLOUDY    60  58  94 CALM      29.88R
PAYNESVILLE    CLOUDY    60  59  98 W5        29.86R
AITKIN         PTSUNNY   63  55  77 NW5       29.85R
PINE RIVER     CLOUDY    59  59 100 CALM      29.90S
BRAINERD       CLOUDY    61  58  90 N7        29.87R
STAPLES        CLOUDY    59  57  94 NW3       29.88R
LONG PRAIRIE   FAIR      59  57  94 NW5       29.88R
LITTLE FALLS   LGT RAIN  61  55  82 NW5       29.87R
LITCHFIELD     CLOUDY    66  64  94 SE3       29.84S
BUFFALO        MOSUNNY   66  61  84 SE7       29.85S
MAPLE LAKE     MOSUNNY   67  64  90 S5        29.85S
$$
MNZ037-044-045-052-053-291300-
   East Central Minnesota

CITY           SKY/WX    TMP DP  RH WIND       PRES   REMARKS
PRINCETON      PTSUNNY   66  63  88 SE3       29.85R
MORA           CLOUDY    63  59  88 CALM      29.87S
CAMBRIDGE      PTSUNNY   66  57  72 SE6       29.84R
RUSH CITY      CLOUDY    62  60  94 S6        29.86S
MOOSE LAKE     CLOUDY    54  52  94 CALM      29.84S
HINCKLEY       CLOUDY    63  61  94 S8        29.86S
CLOQUET        CLOUDY    52  46  82 CALM      29.86S
MCGREGOR       CLOUDY    63  59  88 W7        29.86R
$$
MNZ071>073-080-081-089-090-097-098-291300-
   Southwest Minnesota

CITY           SKY/WX    TMP DP  RH WIND       PRES   REMARKS
MONTEVIDEO     PTSUNNY   63  63 100 N7        29.87R
GRANITE FALLS  CLOUDY    63  62  96 NW7       29.86R
CANBY          CLOUDY    61  60  96 NW5       29.87R FOG
MARSHALL       CLOUDY    63  57  82 S10       29.83S
REDWOOD FALLS  CLOUDY    65  62  90 S12       29.83S
OLIVIA         CLOUDY    61  59  94 CALM      29.84R
PIPESTONE      CLOUDY    64  61  88 SE5       29.87R
WINDOM         LGT RAIN  63  61  94 SW6       29.87S
WORTHINGTON    CLOUDY    63  57  82 S7        29.87F
JACKSON        LGT RAIN  63  63 100 S7        29.89R
TRACY          CLOUDY    65  64  95 S9        29.84F FOG
SLAYTON        CLOUDY    63  62  97 CALM      29.89S
$$
MNZ065>067-074>077-082>085-091>093-291300-
   South Central Minnesota

CITY           SKY/WX    TMP DP  RH WIND       PRES   REMARKS
MANKATO        PTSUNNY   66  63  88 SW9       29.90R
NEW ULM        RAIN      64  63  94 SW10      29.85F
ST JAMES       LGT RAIN  64  63  94 SE6       29.90R
FAIRMONT       CLOUDY    63  57  82 S9        29.91R
GLENCOE        CLOUDY    67  65  94 S5        29.85S
FARIBAULT      CLOUDY    66  63  88 S7        29.90R
OWATONNA       CLOUDY    66  63  88 S10       29.90R
WASECA         CLOUDY    64  61  88 S12       29.91R
ALBERT LEA     LGT RAIN  64  64 100 SW7       29.91R
$$
MNZ078>079-086>088-094>096-291300-
   Southeast Minnesota

CITY           SKY/WX    TMP DP  RH WIND       PRES   REMARKS
ROCHESTER      CLOUDY    65  62  90 S14       29.92F
6HR MIN TEMP:  63; 6HR MAX TEMP:  66; 6HR PCP: TRACE;

RED WING       CLOUDY    64  61  88 CALM      29.88R
STANTON        CLOUDY    66  62  87 S5        29.88R
DODGE CENTER   CLOUDY    66  63  88 S8        29.91R
WINONA         CLOUDY    66  61  82 CALM      29.92S
AUSTIN         CLOUDY    64  63  94 S8        29.91S
PRESTON        CLOUDY    63  60  91 S9        29.94R
$$
ABBREVIATIONS USED IN REMARKS
   TC - TEMPERATURES IN CELSIUS
  WCI - WIND CHILL INDEX
   HX - HEAT INDEX
  VSB - VISIBILITY
$$



USA.gov is the U.S. government's official web portal to all federal, state and local government web resources and services.